Tracking 29781 objects as of 15-Oct-2024
HD Live streaming from Space Station
objects crossing your sky now

DELTA 1 DEB

Track DELTA 1 DEB now!
10-day predictions


NORAD ID: 21548
Int'l Code: 1975-052HC
Perigee: 1,098.1 km
Apogee: 1,474.9 km
Inclination: 99.8 °
Period: 111.1 minutes
Semi major axis: 7657 km
RCS: 0.0496 m2 (small)
Launch date: June 12, 1975
Source: United States (US)
Launch site: AIR FORCE WESTERN TEST RANGE (AFWTR)

Note: This is SATELLITE DEBRIS
Your satellite tracking list
Your tracking list is empty




NASA's NSSDC Master Catalog

Two Line Element Set (TLE):
1 21548U 75052HC  24288.85942170  .00000617  00000-0  20206-2 0  9995
2 21548  99.7877  62.1241 0245995 322.0513 191.7328 12.95609166580419
Source of the keplerian elements: AFSPC